This demonstration page uses our WeatherBlox Daily Observations layout. Learn more.

Left ArrowRight Arrow

44.8408, -93.29828

Hourly Observations for September 12, 2020

Temp ( °F °C ) Dew Point ( °F °C ) Humidity (%) Winds ( mph kmh ) Pressure ( in mb ) Visibility ( mi km ) Precip ( " mm )
12:08 am 00:08 Cloudy with Mist and Fog 54 12.2 54 12.2 100 100 E 6 9 30.02 1017 3 5 0.00 0.00
12:53 am 00:53 Cloudy with Mist and Fog 55 12.8 55 12.8 100 100 ESE 7 11 30.01 1016 4 6 0.01 0.25
1:53 am 01:53 Cloudy with Light Rain 55 12.8 55 12.8 100 100 ESE 10 17 29.98 1015 5 8 0.00 0.00
2:16 am 02:16 Cloudy with Light Rain 56 13.3 55 12.8 97 97 ESE 9 15 29.97 1015 6 10 0.01 0.25
2:53 am 02:53 Cloudy with Light Rain 56 13.3 55 12.8 97 97 ESE 8 13 29.96 1015 7 11 0.01 0.25
3:15 am 03:15 Cloudy with Nearby Thunderstorms 56 13.3 56 13.3 100 100 SE 6 9 29.95 1014 8 13 0.00 0.00
3:30 am 03:30 Cloudy with Light Rain 56 13.3 56 13.3 100 100 S 5 7 29.95 1014 8 13 0.00 0.00
3:43 am 03:43 Cloudy with Light Rain 56 13.3 55 12.8 97 97 ESE 6 9 29.94 1014 8 13 0.01 0.25
3:53 am 03:53 Cloudy 56 13.3 55 12.8 97 97 SE 5 7 29.94 1014 8 13 0.01 0.25
4:53 am 04:53 Cloudy with Mist and Fog 56 13.3 56 13.3 100 100 SSE 6 9 29.93 1014 6 10 0.00 0.00
5:53 am 05:53 Cloudy with Light Rain 56 13.3 56 13.3 100 100 SSE 3 6 29.91 1013 7 11 0.01 0.25
6:30 am 06:30 Cloudy with Mist and Fog 56 13.3 56 13.3 100 100 SSE 5 7 29.91 1013 2 3 0.00 0.00
6:53 am 06:53 Cloudy with Mist and Fog 56 13.3 56 13.3 100 100 S 5 7 29.91 1013 2 3 0.00 0.00
7:10 am 07:10 Cloudy with Mist and Fog 56 13.3 56 13.3 100 100 S 5 7 29.92 1013 1 2 0.00 0.00
7:40 am 07:40 Cloudy with Mist and Fog 56 13.3 56 13.3 100 100 Calm 29.91 1013 2 2 0.00 0.00
7:53 am 07:53 Cloudy with Mist and Fog 57 13.9 57 13.9 100 100 Calm 29.91 1013 3 4 0.00 0.00
8:00 am 08:00 Cloudy with Mist and Fog 57 13.9 57 13.9 100 100 W 6 9 29.91 1013 5 8 0.00 0.00
8:16 am 08:16 Cloudy with Mist and Fog 57 13.9 57 13.9 100 100 W 3 6 29.91 1013 6 10 0.00 0.00
8:53 am 08:53 Cloudy 58 14.4 57 13.9 97 97 W 5 7 29.91 1013 7 11 0.00 0.00
9:04 am 09:04 Cloudy with Mist and Fog 58 14.4 57 13.9 97 97 W 3 6 29.91 1013 3 5 0.00 0.00
9:18 am 09:18 Cloudy with Mist and Fog 58 14.4 57 13.9 97 97 WNW 5 7 29.91 1013 6 10 0.00 0.00
9:53 am 09:53 Mostly Cloudy 58 14.4 57 13.9 97 97 WNW 6 9 29.91 1013 10 16 0.00 0.00
10:09 am 10:09 Cloudy 59 15 56 13.3 90 90 WNW 7 11 29.90 1013 10 16 0.00 0.00
10:53 am 10:53 Cloudy 60 15.6 56 13.3 86 86 WNW 6 9 29.90 1013 10 16 0.00 0.00
11:28 am 11:28 Mostly Cloudy 61 16.1 56 13.3 84 84 NW 6 9 29.89 1012 10 16 0.00 0.00
11:53 am 11:53 Cloudy 61 16.1 55 12.8 81 81 WSW 7 11 29.90 1013 10 16 0.00 0.00
12:53 pm 12:53 Cloudy 62 16.7 55 12.8 78 78 WSW 7 11 29.89 1012 10 16 0.00 0.00
1:53 pm 13:53 Cloudy 63 17.2 55 12.8 76 76 W 6 9 29.88 1012 10 16 0.00 0.00
2:50 pm 14:50 Cloudy 63 17 54 12 73 73 W 8 13 29.86 1011 10 16 0.00 0.00
2:53 pm 14:53 Cloudy 63 17.2 54 12.2 73 73 W 9 15 29.86 1011 10 16 0.00 0.00
3:00 pm 15:00 Cloudy 63 17.2 55 12.8 76 76 WNW 7 11 29.85 1011 10 16 0.00 0.00
3:53 pm 15:53 Cloudy 63 17.2 55 12.8 76 76 W 7 11 29.86 1011 10 16 0.00 0.00
4:24 pm 16:24 Cloudy 63 17.2 55 12.8 76 76 WNW 10 17 29.86 1011 10 16 0.00 0.00
4:53 pm 16:53 Cloudy 62 16.7 55 12.8 78 78 WNW 8 13 29.87 1012 10 16 0.00 0.00
5:53 pm 17:53 Cloudy 62 16.7 54 12.2 75 75 W 10 17 29.88 1012 10 16 0.00 0.00
6:53 pm 18:53 Cloudy 62 16.7 55 12.8 78 78 NW 8 13 29.89 1012 10 16 0.00 0.00
7:23 pm 19:23 Cloudy 62 16.7 54 12.2 75 75 NW 8 13 29.89 1012 10 16 0.00 0.00
7:53 pm 19:53 Cloudy 60 15.6 54 12.2 80 80 NNW 8 13 29.91 1013 10 16 0.00 0.00
8:53 pm 20:53 Cloudy 59 15 54 12.2 83 83 NW 5 7 29.92 1013 10 16 0.00 0.00
9:53 pm 21:53 Mostly Cloudy 57 13.9 54 12.2 90 90 WNW 5 7 29.93 1014 10 16 0.00 0.00
10:53 pm 22:53 Mostly Cloudy 59 15 54 12.2 83 83 W 7 11 29.94 1014 10 16 0.00 0.00
11:53 pm 23:53 Mostly Cloudy 57 13.9 54 12.2 90 90 WNW 6 9 29.95 1014 10 16 0.00 0.00

Powered by AerisWeather